Precipitable_Water
1.81 1.81 1.86 1.85 1.81 1.81 1.81 1.83 1.82 1.83 1.81 1.79 1.77 1.78 1.77 1.78 1.73 1.74 1.77 1.75 1.77 1.73 1.69 1.67 1.67 1.68 1.67 1.60 1.56 1.58 1.57 1.57 1.61 1.64 1.60 1.59 1.59 1.58 1.65 1.65 1.52 1.48 1.44 1.40 1.49 1.50 1.46 1.40 1.39 1.41 1.42 1.36 1.36 1.36 1.36 1.41 1.47 1.48 1.49 1.50 1.50 1.58 1.52 1.43 1.32 1.35 1.56 1.71 1.66 1.67 1.80 1.78 1.86 1.86 1.82 1.82 1.82 1.80 1.83 1.82 1.69 1.62 1.60 1.63 1.65
1.76 1.86 1.90 1.80 1.77 1.76 1.78 1.82 1.83 1.82 1.80 1.77 1.74 1.75 1.75 1.76 1.77 1.74 1.72 1.75 1.77 1.76 1.69 1.68 1.70 1.70 1.64 1.60 1.55 1.55 1.55 1.54 1.57 1.59 1.58 1.56 1.55 1.58 1.55 1.63 1.56 1.48 1.46 1.42 1.44 1.47 1.48 1.43 1.38 1.38 1.42 1.33 1.34 1.33 1.35 1.37 1.44 1.51 1.57 1.54 1.52 1.54 1.62 1.51 1.43 1.41 1.38 1.58 1.64 1.75 1.72 1.73 1.69 1.87 1.85 1.79 1.79 1.83 1.80 1.74 1.64 1.58 1.57 1.61 1.63
1.80 1.83 1.73 1.73 1.75 1.78 1.79 1.78 1.83 1.82 1.75 1.74 1.70 1.72 1.73 1.75 1.77 1.73 1.74 1.77 1.77 1.76 1.68 1.68 1.72 1.68 1.60 1.59 1.59 1.56 1.57 1.55 1.54 1.59 1.62 1.60 1.55 1.55 1.59 1.58 1.54 1.46 1.40 1.41 1.43 1.47 1.45 1.43 1.41 1.38 1.39 1.38 1.40 1.33 1.33 1.33 1.40 1.43 1.48 1.57 1.57 1.59 1.63 1.61 1.49 1.40 1.41 1.46 1.63 1.59 1.71 1.75 1.71 1.75 1.85 1.83 1.82 1.80 1.72 1.65 1.56 1.56 1.61 1.65 1.62
1.70 1.69 1.70 1.73 1.75 1.78 1.76 1.77 1.77 1.75 1.70 1.72 1.67 1.69 1.71 1.72 1.74 1.75 1.77 1.79 1.75 1.73 1.75 1.72 1.72 1.66 1.58 1.56 1.59 1.56 1.57 1.59 1.61 1.61 1.62 1.64 1.61 1.56 1.57 1.57 1.57 1.49 1.42 1.43 1.46 1.46 1.45 1.43 1.41 1.41 1.42 1.38 1.37 1.37 1.39 1.39 1.41 1.41 1.39 1.44 1.50 1.55 1.59 1.64 1.63 1.44 1.43 1.38 1.58 1.58 1.72 1.72 1.79 1.84 1.81 1.80 1.78 1.76 1.66 1.60 1.59 1.57 1.60 1.63 1.62
1.65 1.65 1.66 1.66 1.69 1.72 1.71 1.74 1.75 1.70 1.65 1.66 1.65 1.65 1.69 1.69 1.73 1.73 1.75 1.75 1.75 1.70 1.71 1.72 1.70 1.67 1.57 1.54 1.56 1.55 1.56 1.60 1.60 1.58 1.58 1.61 1.61 1.57 1.54 1.52 1.51 1.49 1.46 1.48 1.51 1.51 1.50 1.46 1.46 1.45 1.45 1.39 1.37 1.34 1.33 1.33 1.40 1.42 1.40 1.48 1.51 1.59 1.60 1.61 1.63 1.63 1.49 1.42 1.51 1.69 1.76 1.75 1.80 1.79 1.81 1.68 1.70 1.72 1.68 1.61 1.60 1.60 1.62 1.65 1.65
1.60 1.61 1.65 1.64 1.68 1.69 1.71 1.76 1.71 1.66 1.62 1.62 1.63 1.64 1.68 1.68 1.71 1.72 1.76 1.73 1.71 1.70 1.66 1.63 1.64 1.61 1.52 1.49 1.52 1.55 1.56 1.58 1.59 1.58 1.60 1.63 1.61 1.56 1.54 1.52 1.50 1.51 1.51 1.53 1.53 1.51 1.45 1.46 1.48 1.48 1.47 1.42 1.39 1.39 1.39 1.38 1.44 1.46 1.45 1.46 1.47 1.51 1.58 1.63 1.60 1.56 1.52 1.52 1.57 1.59 1.77 1.74 1.76 1.73 1.82 1.78 1.67 1.65 1.68 1.70 1.68 1.68 1.65 1.58 1.59
1.55 1.54 1.58 1.66 1.65 1.70 1.74 1.70 1.64 1.61 1.59 1.61 1.64 1.65 1.65 1.67 1.71 1.72 1.75 1.73 1.68 1.64 1.64 1.59 1.52 1.54 1.50 1.51 1.53 1.55 1.56 1.57 1.60 1.59 1.60 1.63 1.60 1.54 1.49 1.48 1.49 1.51 1.51 1.52 1.52 1.50 1.48 1.47 1.49 1.52 1.49 1.45 1.41 1.40 1.43 1.43 1.43 1.47 1.50 1.54 1.57 1.52 1.54 1.57 1.63 1.63 1.50 1.48 1.55 1.70 1.65 1.75 1.73 1.71 1.86 1.85 1.81 1.74 1.57 1.58 1.56 1.64 1.65 1.60 1.54
1.50 1.50 1.52 1.56 1.60 1.63 1.64 1.62 1.60 1.58 1.58 1.60 1.61 1.61 1.63 1.68 1.72 1.75 1.73 1.67 1.66 1.62 1.57 1.54 1.54 1.56 1.56 1.52 1.50 1.55 1.58 1.58 1.58 1.58 1.58 1.57 1.54 1.52 1.49 1.45 1.45 1.45 1.46 1.48 1.50 1.50 1.50 1.49 1.48 1.51 1.51 1.48 1.42 1.42 1.43 1.41 1.46 1.44 1.53 1.57 1.59 1.57 1.53 1.54 1.52 1.43 1.38 1.38 1.37 1.50 1.57 1.54 1.72 1.94 1.93 1.82 1.70 1.68 1.67 1.58 1.48 1.52 1.56 1.63 1.63
1.48 1.47 1.47 1.49 1.54 1.60 1.60 1.58 1.57 1.55 1.54 1.54 1.55 1.56 1.61 1.65 1.68 1.69 1.69 1.64 1.62 1.61 1.61 1.59 1.56 1.52 1.49 1.48 1.49 1.54 1.56 1.55 1.54 1.54 1.52 1.50 1.50 1.49 1.49 1.48 1.44 1.46 1.48 1.52 1.56 1.52 1.48 1.51 1.51 1.51 1.51 1.50 1.46 1.43 1.43 1.46 1.41 1.38 1.46 1.54 1.60 1.57 1.52 1.52 1.55 1.53 1.55 1.51 1.53 1.60 1.58 1.59 1.61 1.72 1.74 1.67 1.59 1.58 1.69 1.68 1.63 1.62 1.60 1.55 1.59
1.58 1.49 1.46 1.46 1.51 1.54 1.55 1.53 1.50 1.50 1.47 1.46 1.49 1.53 1.54 1.54 1.54 1.54 1.55 1.55 1.55 1.54 1.55 1.55 1.53 1.50 1.46 1.47 1.50 1.54 1.53 1.53 1.52 1.50 1.51 1.50 1.48 1.46 1.46 1.48 1.50 1.49 1.47 1.45 1.48 1.53 1.52 1.51 1.51 1.50 1.48 1.45 1.41 1.36 1.31 1.29 1.31 1.32 1.39 1.49 1.59 1.50 1.49 1.46 1.43 1.43 1.41 1.39 1.44 1.51 1.48 1.51 1.62 1.71 1.69 1.67 1.74 1.82 1.76 1.72 1.60 1.60 1.57 1.51 1.51
1.76 1.64 1.54 1.57 1.57 1.54 1.52 1.48 1.46 1.42 1.43 1.43 1.43 1.44 1.45 1.45 1.45 1.46 1.47 1.48 1.47 1.48 1.49 1.48 1.47 1.48 1.46 1.46 1.46 1.45 1.45 1.45 1.44 1.42 1.40 1.40 1.44 1.48 1.48 1.48 1.48 1.47 1.43 1.41 1.40 1.44 1.50 1.53 1.52 1.49 1.44 1.39 1.35 1.32 1.31 1.30 1.31 1.33 1.36 1.40 1.51 1.51 1.44 1.41 1.41 1.46 1.45 1.44 1.55 1.59 1.52 1.47 1.55 1.68 1.63 1.75 1.84 1.76 1.72 1.68 1.63 1.58 1.47 1.37 1.28
1.91 1.82 1.72 1.64 1.60 1.55 1.52 1.50 1.44 1.40 1.40 1.38 1.40 1.39 1.39 1.38 1.38 1.38 1.38 1.38 1.41 1.44 1.42 1.42 1.45 1.46 1.46 1.46 1.43 1.41 1.39 1.39 1.39 1.35 1.34 1.33 1.34 1.36 1.42 1.45 1.46 1.44 1.41 1.38 1.41 1.42 1.42 1.44 1.47 1.49 1.48 1.46 1.40 1.39 1.35 1.32 1.32 1.34 1.36 1.38 1.42 1.49 1.52 1.48 1.45 1.43 1.45 1.42 1.48 1.55 1.56 1.53 1.50 1.51 1.61 1.74 1.68 1.70 1.70 1.64 1.61 1.53 1.46 1.41 1.41
1.90 1.91 1.88 1.71 1.58 1.53 1.50 1.48 1.46 1.41 1.39 1.39 1.39 1.40 1.37 1.35 1.32 1.31 1.31 1.35 1.37 1.37 1.39 1.40 1.39 1.41 1.42 1.40 1.38 1.39 1.37 1.37 1.35 1.35 1.34 1.32 1.31 1.31 1.32 1.35 1.40 1.43 1.46 1.46 1.43 1.43 1.45 1.44 1.43 1.45 1.46 1.46 1.43 1.41 1.44 1.48 1.42 1.35 1.36 1.41 1.46 1.49 1.50 1.55 1.59 1.56 1.58 1.55 1.51 1.54 1.57 1.60 1.55 1.64 1.80 1.79 1.76 1.59 1.60 1.53 1.56 1.56 1.56 1.53 1.55
1.84 1.87 1.82 1.73 1.65 1.59 1.55 1.53 1.51 1.49 1.46 1.41 1.39 1.36 1.33 1.29 1.30 1.30 1.31 1.32 1.29 1.29 1.29 1.29 1.31 1.32 1.33 1.33 1.33 1.34 1.35 1.39 1.37 1.35 1.33 1.30 1.28 1.28 1.30 1.32 1.34 1.39 1.43 1.46 1.46 1.45 1.45 1.42 1.39 1.40 1.45 1.48 1.49 1.42 1.39 1.41 1.45 1.47 1.41 1.40 1.43 1.45 1.47 1.49 1.49 1.53 1.59 1.62 1.64 1.60 1.76 1.81 1.74 1.81 1.96 1.86 1.70 1.57 1.50 1.49 1.59 1.56 1.57 1.65 1.78
1.65 1.72 1.77 1.76 1.75 1.74 1.68 1.62 1.57 1.55 1.51 1.48 1.42 1.35 1.33 1.32 1.30 1.32 1.33 1.31 1.28 1.25 1.27 1.25 1.25 1.28 1.30 1.31 1.30 1.31 1.33 1.36 1.35 1.32 1.30 1.28 1.28 1.29 1.31 1.32 1.33 1.34 1.39 1.45 1.47 1.46 1.46 1.46 1.44 1.40 1.42 1.45 1.49 1.48 1.47 1.48 1.49 1.54 1.48 1.44 1.44 1.48 1.51 1.47 1.47 1.52 1.56 1.59 1.60 1.68 1.79 1.94 1.98 2.01 2.00 1.92 1.83 1.79 1.69 1.57 1.69 1.74 1.77 1.90 1.90
1.58 1.64 1.70 1.79 1.83 1.84 1.79 1.75 1.70 1.67 1.59 1.53 1.47 1.41 1.36 1.32 1.31 1.35 1.34 1.34 1.36 1.36 1.34 1.31 1.27 1.26 1.28 1.29 1.26 1.22 1.26 1.29 1.27 1.25 1.24 1.23 1.26 1.29 1.30 1.30 1.30 1.32 1.34 1.39 1.44 1.47 1.47 1.46 1.43 1.42 1.40 1.40 1.43 1.44 1.43 1.51 1.56 1.54 1.56 1.52 1.49 1.48 1.50 1.59 1.60 1.58 1.61 1.64 1.69 1.75 1.84 1.91 1.98 1.97 1.99 1.92 1.92 1.95 1.82 1.76 1.68 1.56 1.56 1.62 1.48
1.52 1.54 1.56 1.67 1.80 1.86 1.87 1.85 1.83 1.80 1.80 1.71 1.59 1.50 1.42 1.39 1.39 1.42 1.38 1.35 1.34 1.35 1.35 1.37 1.38 1.34 1.34 1.32 1.26 1.23 1.23 1.26 1.24 1.23 1.20 1.18 1.19 1.24 1.26 1.26 1.28 1.30 1.32 1.36 1.40 1.45 1.49 1.49 1.47 1.43 1.43 1.41 1.43 1.42 1.41 1.40 1.39 1.43 1.50 1.48 1.49 1.49 1.50 1.61 1.59 1.61 1.64 1.70 1.75 1.78 1.80 1.86 1.93 1.98 1.99 1.98 1.96 1.90 1.83 1.66 1.54 1.58 1.45 1.30 1.31
1.44 1.45 1.48 1.55 1.60 1.66 1.76 1.84 1.86 1.87 1.89 1.84 1.80 1.76 1.75 1.66 1.57 1.53 1.40 1.39 1.38 1.39 1.41 1.40 1.42 1.42 1.39 1.35 1.34 1.28 1.25 1.28 1.27 1.22 1.18 1.16 1.15 1.16 1.20 1.21 1.24 1.28 1.32 1.38 1.40 1.41 1.44 1.46 1.49 1.48 1.45 1.44 1.47 1.45 1.44 1.42 1.36 1.35 1.38 1.39 1.38 1.38 1.42 1.56 1.61 1.61 1.67 1.67 1.67 1.73 1.78 1.83 1.89 1.96 2.00 1.97 1.95 1.93 1.76 1.54 1.60 1.60 1.44 1.33 1.24
1.40 1.43 1.47 1.54 1.57 1.61 1.63 1.67 1.76 1.86 1.88 1.94 1.94 1.89 1.92 1.85 1.88 1.82 1.66 1.56 1.49 1.50 1.50 1.46 1.45 1.44 1.43 1.39 1.36 1.29 1.25 1.26 1.30 1.27 1.24 1.22 1.20 1.21 1.22 1.21 1.20 1.24 1.29 1.34 1.43 1.46 1.48 1.50 1.48 1.48 1.47 1.48 1.48 1.47 1.46 1.46 1.40 1.37 1.37 1.37 1.34 1.34 1.44 1.59 1.63 1.60 1.61 1.60 1.65 1.72 1.77 1.83 1.89 1.92 1.96 1.97 1.96 1.97 1.90 1.75 1.71 1.58 1.42 1.39 1.34
1.42 1.47 1.50 1.54 1.57 1.58 1.59 1.57 1.59 1.66 1.77 1.86 1.94 1.90 1.96 1.95 1.92 1.93 1.85 1.82 1.71 1.66 1.62 1.57 1.51 1.49 1.49 1.46 1.42 1.38 1.30 1.27 1.34 1.33 1.32 1.31 1.30 1.30 1.31 1.26 1.23 1.26 1.32 1.33 1.37 1.48 1.52 1.56 1.57 1.50 1.46 1.45 1.45 1.45 1.45 1.48 1.46 1.47 1.48 1.43 1.39 1.37 1.57 1.67 1.70 1.70 1.70 1.67 1.68 1.72 1.75 1.82 1.84 1.88 1.90 1.93 1.96 1.95 1.88 1.83 1.73 1.62 1.50 1.46 1.34
1.36 1.39 1.44 1.48 1.50 1.53 1.58 1.57 1.54 1.57 1.62 1.69 1.80 1.91 1.94 1.91 1.92 1.92 1.87 1.93 1.89 1.84 1.76 1.75 1.69 1.67 1.67 1.65 1.60 1.59 1.56 1.47 1.45 1.41 1.38 1.38 1.39 1.39 1.39 1.36 1.35 1.35 1.37 1.38 1.38 1.41 1.49 1.53 1.57 1.61 1.55 1.51 1.49 1.47 1.45 1.46 1.49 1.52 1.56 1.51 1.52 1.60 1.72 1.72 1.75 1.77 1.78 1.78 1.74 1.73 1.73 1.76 1.77 1.83 1.87 1.88 1.87 1.87 1.85 1.81 1.72 1.63 1.54 1.45 1.37
1.21 1.25 1.29 1.34 1.41 1.45 1.49 1.52 1.54 1.55 1.57 1.58 1.58 1.63 1.74 1.81 1.88 1.89 1.84 1.89 1.87 1.84 1.87 1.89 1.77 1.81 1.81 1.80 1.75 1.72 1.74 1.69 1.65 1.61 1.53 1.48 1.46 1.46 1.45 1.45 1.48 1.45 1.41 1.39 1.41 1.42 1.47 1.54 1.60 1.63 1.61 1.59 1.57 1.55 1.52 1.49 1.50 1.53 1.56 1.61 1.66 1.69 1.72 1.78 1.84 1.78 1.70 1.71 1.74 1.70 1.68 1.67 1.69 1.73 1.75 1.76 1.75 1.74 1.74 1.71 1.67 1.63 1.65 1.63 1.58
1.20 1.23 1.26 1.27 1.31 1.35 1.40 1.43 1.46 1.49 1.48 1.49 1.48 1.48 1.53 1.56 1.63 1.70 1.73 1.76 1.77 1.75 1.79 1.80 1.82 1.84 1.87 1.81 1.87 1.84 1.83 1.82 1.76 1.73 1.70 1.64 1.58 1.54 1.50 1.50 1.53 1.55 1.48 1.42 1.41 1.43 1.51 1.55 1.61 1.65 1.64 1.62 1.60 1.58 1.56 1.55 1.55 1.54 1.56 1.60 1.64 1.70 1.73 1.75 1.76 1.73 1.71 1.67 1.67 1.63 1.64 1.67 1.66 1.64 1.64 1.64 1.66 1.67 1.66 1.64 1.64 1.67 1.70 1.74 1.80
1.23 1.24 1.24 1.24 1.26 1.28 1.30 1.34 1.38 1.41 1.42 1.43 1.42 1.40 1.41 1.42 1.44 1.47 1.49 1.50 1.53 1.57 1.64 1.70 1.71 1.73 1.77 1.85 1.89 1.95 1.97 1.91 1.85 1.83 1.80 1.75 1.72 1.68 1.63 1.59 1.58 1.57 1.57 1.53 1.52 1.53 1.55 1.57 1.60 1.62 1.60 1.57 1.57 1.58 1.58 1.57 1.56 1.56 1.59 1.59 1.64 1.68 1.71 1.72 1.71 1.68 1.65 1.64 1.59 1.57 1.57 1.64 1.66 1.63 1.58 1.61 1.64 1.66 1.66 1.70 1.73 1.76 1.75 1.80 1.86
1.21 1.22 1.24 1.24 1.24 1.26 1.28 1.29 1.30 1.33 1.36 1.38 1.36 1.36 1.36 1.38 1.35 1.38 1.38 1.36 1.35 1.34 1.38 1.45 1.50 1.57 1.65 1.69 1.80 1.91 1.91 1.93 1.91 1.89 1.87 1.84 1.80 1.78 1.76 1.74 1.71 1.67 1.60 1.58 1.60 1.61 1.64 1.65 1.66 1.65 1.59 1.56 1.57 1.58 1.59 1.58 1.58 1.59 1.61 1.63 1.65 1.67 1.70 1.70 1.69 1.66 1.60 1.56 1.57 1.60 1.63 1.66 1.66 1.65 1.63 1.66 1.72 1.73 1.65 1.69 1.85 1.86 1.86 1.87 1.85
1.19 1.19 1.21 1.23 1.25 1.26 1.25 1.26 1.27 1.29 1.29 1.32 1.32 1.33 1.31 1.32 1.31 1.33 1.34 1.32 1.31 1.28 1.27 1.30 1.30 1.32 1.35 1.43 1.54 1.72 1.88 1.94 1.94 1.96 1.98 1.94 1.88 1.85 1.83 1.82 1.79 1.78 1.75 1.69 1.66 1.65 1.64 1.62 1.63 1.64 1.63 1.60 1.58 1.57 1.57 1.59 1.59 1.60 1.61 1.63 1.65 1.65 1.68 1.70 1.70 1.64 1.56 1.56 1.59 1.59 1.63 1.65 1.63 1.65 1.72 1.74 1.65 1.58 1.61 1.64 1.69 1.66 1.70 1.72 1.71
1.19 1.20 1.20 1.21 1.23 1.24 1.23 1.24 1.25 1.28 1.28 1.28 1.29 1.29 1.29 1.28 1.27 1.26 1.27 1.26 1.27 1.27 1.27 1.25 1.24 1.24 1.24 1.27 1.33 1.40 1.53 1.66 1.75 1.83 1.89 1.92 1.91 1.91 1.87 1.83 1.82 1.82 1.79 1.76 1.72 1.70 1.68 1.66 1.63 1.63 1.64 1.64 1.63 1.64 1.64 1.66 1.63 1.60 1.60 1.62 1.64 1.66 1.67 1.71 1.71 1.69 1.70 1.62 1.64 1.63 1.67 1.72 1.70 1.68 1.57 1.56 1.55 1.62 1.67 1.65 1.61 1.67 1.72 1.73 1.70
1.20 1.20 1.19 1.20 1.21 1.23 1.23 1.24 1.24 1.25 1.28 1.28 1.26 1.26 1.27 1.27 1.24 1.23 1.23 1.24 1.22 1.21 1.23 1.22 1.22 1.22 1.22 1.24 1.25 1.27 1.30 1.40 1.52 1.62 1.72 1.79 1.81 1.83 1.83 1.81 1.80 1.81 1.78 1.77 1.76 1.77 1.73 1.71 1.67 1.65 1.64 1.62 1.62 1.65 1.69 1.72 1.71 1.67 1.65 1.67 1.71 1.79 1.89 1.92 1.93 1.92 1.84 1.81 1.78 1.72 1.64 1.65 1.58 1.59 1.59 1.59 1.59 1.65 1.72 1.71 1.77 1.72 1.71 1.69 1.61
1.22 1.23 1.22 1.21 1.20 1.23 1.23 1.24 1.25 1.24 1.26 1.28 1.31 1.32 1.29 1.28 1.28 1.29 1.34 1.35 1.32 1.27 1.24 1.23 1.24 1.26 1.25 1.22 1.19 1.16 1.19 1.23 1.39 1.54 1.60 1.65 1.69 1.74 1.78 1.77 1.75 1.74 1.72 1.70 1.69 1.72 1.72 1.69 1.63 1.59 1.57 1.54 1.56 1.59 1.64 1.68 1.71 1.75 1.74 1.75 1.75 1.79 1.86 1.84 1.81 1.80 1.81 1.81 1.80 1.85 1.81 1.76 1.69 1.69 1.67 1.66 1.68 1.75 1.82 1.80 1.79 1.70 1.66 1.60 1.49
1.24 1.23 1.25 1.25 1.24 1.24 1.24 1.24 1.24 1.23 1.23 1.25 1.27 1.33 1.40 1.37 1.35 1.31 1.29 1.33 1.33 1.32 1.28 1.22 1.24 1.25 1.20 1.20 1.22 1.14 1.12 1.21 1.32 1.37 1.44 1.50 1.56 1.59 1.62 1.66 1.69 1.73 1.77 1.78 1.74 1.64 1.59 1.57 1.57 1.55 1.53 1.53 1.52 1.55 1.59 1.64 1.65 1.68 1.72 1.76 1.76 1.76 1.78 1.84 1.87 1.83 1.83 1.83 1.84 1.84 1.83 1.76 1.71 1.75 1.73 1.72 1.74 1.79 1.80 1.72 1.66 1.62 1.53 1.45 1.39
1.25 1.26 1.26 1.26 1.29 1.29 1.27 1.24 1.24 1.24 1.25 1.27 1.27 1.26 1.28 1.33 1.36 1.36 1.36 1.34 1.33 1.32 1.31 1.29 1.29 1.29 1.25 1.18 1.23 1.24 1.21 1.21 1.23 1.25 1.28 1.31 1.39 1.47 1.51 1.54 1.58 1.64 1.70 1.71 1.66 1.60 1.55 1.51 1.51 1.55 1.57 1.57 1.56 1.57 1.59 1.59 1.60 1.63 1.66 1.73 1.77 1.79 1.81 1.82 1.85 1.85 1.83 1.86 1.89 1.88 1.90 1.87 1.79 1.77 1.77 1.76 1.73 1.71 1.71 1.70 1.66 1.58 1.48 1.40 1.33
1.26 1.26 1.28 1.29 1.30 1.29 1.29 1.30 1.28 1.23 1.24 1.26 1.28 1.26 1.24 1.21 1.27 1.32 1.33 1.34 1.34 1.34 1.33 1.32 1.31 1.29 1.29 1.28 1.26 1.26 1.28 1.27 1.26 1.28 1.29 1.30 1.30 1.35 1.43 1.47 1.50 1.55 1.61 1.66 1.58 1.57 1.59 1.54 1.51 1.52 1.54 1.52 1.54 1.59 1.61 1.62 1.62 1.63 1.63 1.64 1.69 1.74 1.76 1.77 1.82 1.84 1.87 1.90 1.86 1.88 1.88 1.83 1.80 1.78 1.76 1.75 1.71 1.67 1.64 1.60 1.55 1.47 1.39 1.34 1.29
1.31 1.31 1.33 1.34 1.33 1.32 1.32 1.31 1.27 1.25 1.25 1.25 1.26 1.27 1.23 1.21 1.16 1.18 1.31 1.34 1.35 1.35 1.36 1.38 1.38 1.36 1.35 1.35 1.35 1.32 1.32 1.33 1.29 1.27 1.27 1.29 1.32 1.34 1.39 1.47 1.52 1.59 1.58 1.50 1.44 1.45 1.51 1.53 1.49 1.50 1.51 1.48 1.53 1.61 1.65 1.66 1.66 1.67 1.68 1.65 1.65 1.71 1.75 1.80 1.89 1.88 1.92 1.92 1.89 1.85 1.84 1.82 1.80 1.77 1.76 1.73 1.67 1.60 1.61 1.54 1.48 1.42 1.35 1.27 1.21
1.33 1.33 1.34 1.34 1.34 1.34 1.32 1.29 1.28 1.28 1.30 1.30 1.31 1.29 1.28 1.26 1.24 1.22 1.18 1.19 1.28 1.35 1.36 1.38 1.39 1.40 1.41 1.41 1.40 1.40 1.39 1.38 1.37 1.35 1.33 1.32 1.34 1.38 1.44 1.49 1.55 1.59 1.58 1.53 1.50 1.45 1.47 1.46 1.47 1.47 1.49 1.53 1.56 1.60 1.63 1.64 1.68 1.70 1.71 1.72 1.72 1.74 1.77 1.90 1.92 1.88 1.88 1.89 1.86 1.85 1.83 1.81 1.79 1.74 1.69 1.64 1.64 1.59 1.49 1.47 1.43 1.38 1.27 1.19 1.14
1.33 1.33 1.31 1.31 1.32 1.31 1.30 1.30 1.29 1.28 1.29 1.32 1.34 1.33 1.31 1.30 1.28 1.25 1.22 1.19 1.19 1.21 1.24 1.32 1.39 1.42 1.44 1.45 1.45 1.45 1.45 1.45 1.45 1.46 1.45 1.43 1.42 1.45 1.49 1.47 1.44 1.50 1.54 1.56 1.55 1.53 1.50 1.48 1.47 1.50 1.53 1.55 1.57 1.58 1.59 1.63 1.64 1.66 1.70 1.73 1.74 1.75 1.80 1.82 1.87 1.89 1.87 1.81 1.77 1.74 1.74 1.73 1.73 1.74 1.66 1.57 1.54 1.50 1.44 1.42 1.33 1.25 1.18 1.11 1.04
1.23 1.24 1.24 1.26 1.29 1.31 1.30 1.31 1.30 1.29 1.29 1.34 1.38 1.36 1.34 1.31 1.29 1.29 1.30 1.30 1.27 1.26 1.29 1.33 1.37 1.42 1.47 1.48 1.48 1.45 1.45 1.48 1.50 1.50 1.53 1.56 1.56 1.57 1.48 1.45 1.45 1.46 1.48 1.54 1.55 1.56 1.57 1.55 1.55 1.54 1.56 1.58 1.61 1.60 1.65 1.70 1.70 1.70 1.77 1.81 1.83 1.88 1.85 1.78 1.79 1.80 1.78 1.74 1.71 1.71 1.70 1.70 1.71 1.66 1.62 1.59 1.53 1.46 1.38 1.28 1.21 1.16 1.08 1.02 1.01
1.15 1.15 1.17 1.21 1.26 1.29 1.32 1.33 1.33 1.31 1.30 1.35 1.40 1.41 1.37 1.35 1.33 1.34 1.34 1.32 1.32 1.32 1.32 1.34 1.37 1.40 1.46 1.51 1.54 1.53 1.52 1.50 1.50 1.54 1.58 1.58 1.57 1.58 1.55 1.53 1.51 1.51 1.51 1.53 1.55 1.54 1.53 1.54 1.56 1.58 1.59 1.57 1.59 1.69 1.78 1.74 1.79 1.79 1.82 1.81 1.80 1.81 1.82 1.80 1.77 1.73 1.69 1.66 1.69 1.70 1.67 1.64 1.62 1.60 1.56 1.52 1.45 1.33 1.26 1.21 1.12 1.07 1.04 1.03 1.02
1.08 1.10 1.12 1.16 1.20 1.24 1.27 1.29 1.30 1.33 1.36 1.37 1.40 1.41 1.41 1.38 1.36 1.36 1.35 1.35 1.36 1.34 1.33 1.35 1.36 1.35 1.37 1.43 1.58 1.58 1.60 1.60 1.60 1.58 1.57 1.57 1.59 1.59 1.58 1.55 1.54 1.53 1.54 1.57 1.60 1.57 1.54 1.57 1.61 1.62 1.63 1.61 1.61 1.64 1.71 1.84 1.85 1.78 1.72 1.70 1.72 1.76 1.78 1.80 1.80 1.74 1.70 1.65 1.63 1.62 1.61 1.58 1.57 1.53 1.47 1.37 1.28 1.22 1.15 1.10 1.07 1.03 1.03 1.02 1.00
1.00 0.96 0.96 1.00 1.07 1.15 1.19 1.21 1.24 1.28 1.31 1.37 1.39 1.40 1.41 1.39 1.36 1.35 1.36 1.37 1.37 1.38 1.39 1.38 1.39 1.41 1.45 1.56 1.58 1.62 1.57 1.50 1.49 1.48 1.52 1.55 1.57 1.57 1.56 1.57 1.59 1.63 1.66 1.64 1.68 1.64 1.59 1.58 1.61 1.61 1.62 1.63 1.70 1.74 1.69 1.65 1.66 1.65 1.68 1.69 1.68 1.70 1.71 1.71 1.66 1.63 1.59 1.57 1.57 1.57 1.54 1.54 1.54 1.49 1.41 1.32 1.21 1.12 1.06 1.04 1.03 1.03 1.00 0.95 0.91
0.85 0.80 0.78 0.87 0.96 1.01 1.12 1.18 1.23 1.26 1.30 1.34 1.39 1.44 1.44 1.40 1.38 1.37 1.38 1.38 1.37 1.39 1.39 1.39 1.40 1.43 1.50 1.52 1.45 1.45 1.33 1.32 1.34 1.36 1.37 1.40 1.43 1.47 1.50 1.53 1.58 1.63 1.65 1.67 1.70 1.70 1.65 1.59 1.58 1.58 1.56 1.55 1.62 1.71 1.73 1.72 1.71 1.72 1.70 1.66 1.62 1.59 1.59 1.58 1.56 1.54 1.55 1.56 1.56 1.55 1.53 1.52 1.49 1.44 1.32 1.16 1.05 1.00 1.00 1.02 1.02 1.00 0.94 0.87 0.85
0.90 0.88 0.90 0.92 1.00 1.12 1.17 1.22 1.25 1.28 1.34 1.41 1.43 1.48 1.47 1.44 1.43 1.42 1.41 1.40 1.42 1.41 1.40 1.41 1.43 1.49 1.48 1.45 1.45 1.44 1.41 1.33 1.31 1.29 1.28 1.30 1.33 1.33 1.37 1.42 1.47 1.53 1.60 1.65 1.69 1.69 1.68 1.63 1.58 1.56 1.55 1.56 1.61 1.67 1.72 1.71 1.67 1.64 1.63 1.62 1.60 1.58 1.58 1.59 1.57 1.57 1.57 1.60 1.56 1.50 1.49 1.47 1.38 1.23 1.10 1.03 1.01 1.02 1.03 1.00 0.96 0.91 0.86 0.84 0.86
1.03 1.02 1.00 1.00 1.05 1.11 1.16 1.21 1.27 1.35 1.41 1.44 1.45 1.47 1.48 1.50 1.52 1.49 1.43 1.46 1.48 1.43 1.41 1.41 1.43 1.47 1.48 1.47 1.48 1.50 1.48 1.44 1.43 1.41 1.39 1.35 1.33 1.32 1.34 1.37 1.44 1.48 1.55 1.60 1.65 1.69 1.72 1.73 1.72 1.69 1.67 1.65 1.64 1.64 1.67 1.68 1.67 1.65 1.62 1.59 1.55 1.54 1.52 1.53 1.55 1.49 1.46 1.42 1.43 1.41 1.35 1.25 1.17 1.07 0.99 0.96 0.96 0.97 0.94 0.90 0.88 0.86 0.85 0.85 0.88
1.05 1.02 1.00 1.00 1.00 1.04 1.11 1.22 1.35 1.37 1.41 1.45 1.49 1.51 1.53 1.54 1.53 1.53 1.48 1.51 1.44 1.42 1.39 1.39 1.43 1.49 1.48 1.47 1.44 1.43 1.42 1.43 1.46 1.47 1.45 1.43 1.40 1.36 1.32 1.32 1.37 1.42 1.47 1.51 1.57 1.61 1.63 1.66 1.68 1.69 1.68 1.67 1.64 1.61 1.58 1.57 1.57 1.55 1.52 1.47 1.42 1.38 1.35 1.35 1.35 1.33 1.28 1.24 1.19 1.14 1.08 1.02 0.96 0.92 0.89 0.88 0.88 0.89 0.88 0.87 0.87 0.86 0.87 0.87 0.89
1.09 1.06 1.04 1.03 0.99 1.00 1.07 1.18 1.29 1.40 1.47 1.51 1.53 1.50 1.50 1.51 1.55 1.49 1.49 1.45 1.43 1.42 1.40 1.39 1.41 1.41 1.42 1.45 1.47 1.42 1.35 1.32 1.31 1.31 1.33 1.36 1.37 1.37 1.35 1.32 1.29 1.30 1.35 1.39 1.41 1.44 1.45 1.46 1.46 1.49 1.50 1.49 1.48 1.45 1.41 1.40 1.37 1.33 1.30 1.25 1.21 1.17 1.13 1.09 1.05 1.01 0.98 0.95 0.93 0.90 0.87 0.84 0.82 0.83 0.86 0.88 0.89 0.89 0.90 0.88 0.87 0.87 0.88 0.88 0.88
1.08 1.06 1.05 1.05 1.02 0.99 1.00 1.10 1.19 1.26 1.30 1.33 1.38 1.41 1.42 1.42 1.39 1.34 1.31 1.29 1.30 1.32 1.33 1.32 1.32 1.28 1.28 1.31 1.31 1.29 1.26 1.23 1.20 1.23 1.25 1.28 1.32 1.38 1.43 1.42 1.39 1.33 1.29 1.27 1.29 1.29 1.27 1.26 1.26 1.27 1.26 1.29 1.30 1.28 1.25 1.24 1.20 1.13 1.07 1.01 0.96 0.93 0.92 0.91 0.92 0.91 0.92 0.89 0.86 0.83 0.81 0.80 0.80 0.83 0.88 0.88 0.90 0.91 0.91 0.93 0.92 0.93 0.93 0.93 0.93
1.07 1.04 1.01 1.02 1.06 1.05 1.04 1.04 1.09 1.17 1.18 1.19 1.22 1.25 1.29 1.30 1.27 1.25 1.25 1.24 1.24 1.25 1.24 1.23 1.22 1.25 1.25 1.24 1.24 1.24 1.28 1.28 1.23 1.21 1.19 1.17 1.18 1.21 1.25 1.28 1.28 1.30 1.32 1.30 1.28 1.25 1.23 1.19 1.18 1.17 1.16 1.16 1.17 1.16 1.15 1.15 1.15 1.11 1.07 1.00 0.95 0.93 0.93 0.94 0.94 0.93 0.93 0.93 0.90 0.89 0.89 0.87 0.86 0.88 0.90 0.91 0.91 0.96 0.99 1.05 1.08 1.06 1.05 1.02 1.02
1.11 1.07 1.00 0.99 0.96 1.00 1.07 1.06 1.08 1.11 1.16 1.17 1.19 1.20 1.22 1.24 1.23 1.23 1.22 1.22 1.21 1.21 1.23 1.23 1.21 1.20 1.21 1.22 1.22 1.19 1.21 1.24 1.21 1.14 1.10 1.11 1.08 1.07 1.04 1.03 1.06 1.07 1.09 1.14 1.17 1.22 1.23 1.24 1.24 1.22 1.20 1.19 1.20 1.18 1.17 1.18 1.18 1.17 1.17 1.16 1.13 1.10 1.07 1.04 1.04 1.03 1.02 1.03 1.02 0.99 0.98 0.95 0.95 0.96 1.01 1.04 1.06 1.04 1.06 1.09 1.13 1.14 1.10 1.07 1.03
1.14 1.07 1.05 1.02 0.98 0.97 0.95 1.01 1.00 1.03 1.10 1.16 1.16 1.14 1.16 1.16 1.16 1.17 1.17 1.17 1.17 1.17 1.17 1.17 1.18 1.16 1.16 1.14 1.13 1.11 1.10 1.06 1.06 1.08 1.08 1.08 1.03 0.98 0.96 0.94 0.91 0.92 0.95 0.98 1.01 1.02 1.04 1.06 1.09 1.10 1.12 1.15 1.18 1.21 1.25 1.28 1.28 1.26 1.26 1.26 1.26 1.26 1.25 1.19 1.16 1.13 1.13 1.12 1.13 1.11 1.10 1.08 1.08 1.10 1.13 1.12 1.11 1.10 1.09 1.07 1.10 1.09 1.07 1.04 1.04
1.04 0.98 0.98 1.01 0.96 0.93 0.91 0.95 0.95 0.98 0.97 1.03 1.09 1.09 1.09 1.09 1.06 1.05 1.05 1.07 1.08 1.08 1.09 1.07 1.09 1.10 1.08 1.06 1.09 1.07 1.06 1.05 1.06 1.02 1.01 1.02 1.03 1.02 0.98 0.96 0.92 0.88 0.84 0.84 0.88 0.93 0.94 0.98 0.98 0.98 0.97 0.98 1.00 1.01 1.02 1.06 1.10 1.15 1.21 1.25 1.24 1.21 1.19 1.19 1.20 1.19 1.17 1.15 1.14 1.14 1.16 1.16 1.16 1.17 1.18 1.17 1.17 1.17 1.13 1.10 1.09 1.06 1.04 1.03 1.03
1.05 1.02 0.98 1.00 0.95 0.93 0.88 0.88 0.90 0.93 0.93 0.94 0.97 0.98 1.01 1.03 1.05 1.05 1.06 1.06 1.05 1.05 1.06 1.05 1.01 1.00 0.98 1.00 1.03 1.06 1.07 1.06 1.02 1.02 0.99 0.97 0.98 1.00 1.00 0.96 0.94 0.90 0.87 0.85 0.83 0.82 0.85 0.86 0.89 0.91 0.93 0.94 0.94 0.93 0.93 0.93 0.96 1.00 1.06 1.06 1.05 1.05 1.06 1.10 1.13 1.15 1.15 1.20 1.22 1.18 1.18 1.17 1.15 1.14 1.16 1.15 1.16 1.16 1.14 1.12 1.10 1.09 1.05 1.03 1.00
1.11 1.07 1.01 0.99 1.00 0.95 0.87 0.85 0.84 0.86 0.87 0.88 0.91 0.91 0.90 0.96 1.01 1.03 1.02 1.00 0.98 0.99 0.97 0.99 1.02 1.02 1.02 0.98 0.95 0.99 1.02 1.01 1.02 1.02 1.05 1.03 0.98 0.95 0.96 0.95 0.91 0.89 0.87 0.85 0.87 0.86 0.81 0.79 0.79 0.81 0.84 0.86 0.89 0.89 0.92 0.96 0.95 0.94 0.94 0.95 0.95 0.94 0.95 0.95 0.97 0.96 0.99 1.01 1.09 1.10 1.09 1.10 1.09 1.09 1.08 1.11 1.08 1.07 1.07 1.10 1.12 1.08 1.02 0.99 0.98
Wind_Speed
13 13 13 13 14 14 15 16 16 17 18 18 18 19 19 19 20 20 20 20 21 21 22 22 22 23 23 22 21 21 20 20 20 20 20 20 19 19 18 17 17 17 17 16 16 16 15 15 15 15 15 14 14 14 14 13 13 12 12 11 11 11 11 11 11 10 10 10 10 9 9 8 8 8 8 8 8 8 7 8 8 8 8 8 9
12 12 12 13 14 14 15 16 17 17 18 18 18 19 19 19 20 20 20 20 20 21 22 22 23 23 23 22 21 21 20 20 20 19 20 20 20 19 18 18 18 18 17 17 17 16 16 16 16 15 15 15 15 15 15 14 14 13 13 12 12 12 12 12 11 11 11 11 10 10 10 10 10 9 8 8 8 8 8 8 8 8 8 8 8
12 12 12 13 14 14 15 16 16 17 18 18 18 19 19 19 20 20 19 20 20 21 22 23 23 23 23 22 21 21 20 20 20 19 19 20 20 19 19 18 18 18 18 18 17 17 17 17 16 16 16 16 16 16 16 15 15 14 14 13 13 13 13 13 12 12 12 12 11 11 11 11 10 10 9 9 9 8 8 8 8 8 8 8 8
12 12 13 13 14 14 15 15 16 17 17 18 19 19 19 19 19 20 19 19 20 20 21 22 23 23 23 21 21 21 20 20 19 19 19 19 19 19 19 18 18 18 18 18 18 18 18 18 17 17 17 17 17 17 16 16 16 15 15 15 14 14 14 13 13 13 13 13 13 12 12 12 11 10 10 10 9 8 8 9 8 8 8 8 8
12 12 13 13 14 14 15 15 16 17 17 17 18 19 19 19 19 19 20 19 20 20 21 22 22 23 23 21 21 21 20 20 19 19 19 19 19 19 19 19 19 18 18 18 18 18 18 18 18 18 17 17 17 17 17 17 16 16 16 16 15 15 15 14 14 14 14 14 14 14 13 13 12 12 11 10 9 9 9 9 9 9 8 8 9
12 13 13 13 14 14 14 15 15 16 16 17 18 19 19 19 19 19 19 19 20 20 21 22 22 22 22 22 21 21 20 20 19 19 19 19 19 19 19 19 19 18 18 18 18 19 19 19 18 18 18 18 18 18 18 17 17 17 17 16 16 16 15 15 15 15 15 15 15 15 14 13 13 12 12 11 10 10 9 9 9 9 9 10 10
12 13 13 13 14 14 14 14 15 15 16 17 17 18 18 19 19 19 19 19 20 20 21 22 22 22 22 21 21 20 20 19 19 19 19 19 19 19 19 19 19 19 19 19 19 19 19 19 19 19 19 18 18 18 18 18 18 17 17 17 16 16 16 16 16 16 15 15 15 15 14 14 13 13 12 12 12 11 11 10 10 10 11 11 12
12 13 13 13 14 14 14 14 14 15 16 17 17 18 18 18 18 18 19 19 20 20 21 21 21 21 21 21 20 20 19 19 19 19 19 19 19 19 19 19 19 19 19 19 19 19 19 19 19 19 19 19 19 19 18 18 18 18 18 17 17 17 17 16 16 16 16 16 15 15 14 14 15 14 13 13 13 12 12 11 11 12 12 12 13
13 13 13 13 13 14 14 14 14 15 16 17 17 18 18 18 18 18 18 19 19 20 20 20 21 21 21 21 20 20 19 19 19 19 19 19 19 19 19 19 19 19 19 19 19 20 20 20 20 20 20 20 20 19 19 19 19 18 18 18 18 18 17 17 17 17 17 17 16 16 15 15 16 15 14 14 13 13 12 12 12 13 13 13 14
13 13 14 14 14 14 14 14 15 15 16 17 18 18 18 18 18 18 19 19 19 19 20 20 20 20 20 20 20 20 19 19 19 20 20 19 19 19 19 19 19 20 20 20 20 20 20 20 20 20 21 21 20 20 20 20 20 20 19 19 19 18 18 18 18 18 18 18 17 17 16 16 16 16 15 15 14 13 13 13 13 14 14 15 15
14 14 14 14 14 14 14 14 15 15 16 17 18 19 19 18 18 19 19 19 20 19 20 20 20 20 20 21 21 20 20 20 20 20 20 20 19 19 19 19 19 20 20 20 20 20 20 20 20 21 21 21 21 21 21 21 21 21 21 21 20 20 19 19 19 18 18 18 18 17 17 17 16 16 16 16 15 14 14 15 15 15 16 16 17
15 15 15 15 15 15 15 15 15 15 16 16 17 18 19 19 19 19 20 20 20 20 20 21 21 21 21 21 21 21 21 21 20 21 21 21 21 20 19 19 20 20 20 21 21 21 21 21 21 21 21 21 22 21 22 22 22 22 22 22 21 21 21 20 20 19 19 18 18 18 18 18 17 17 17 16 15 15 15 16 16 17 18 18 18
14 15 15 16 16 16 16 16 16 16 16 17 17 18 19 19 20 20 20 20 20 21 21 21 21 21 21 21 21 21 21 21 21 22 22 22 22 21 20 20 20 20 20 21 21 21 21 21 21 21 21 21 22 22 22 22 22 23 22 22 22 22 22 21 21 20 20 19 19 19 19 19 19 19 17 16 16 16 16 17 18 18 19 20 20
13 14 15 16 17 17 17 17 17 17 17 17 18 18 19 20 20 20 20 20 21 21 21 22 22 22 22 22 22 22 22 21 21 22 22 22 22 22 21 21 21 21 21 21 21 21 21 21 21 21 21 22 22 22 22 22 22 22 22 23 23 22 22 22 22 21 21 21 21 21 20 20 20 19 17 17 17 17 18 18 19 19 20 20 19
12 13 14 16 17 18 18 19 19 19 19 19 19 19 20 20 21 21 21 21 21 21 22 22 22 22 22 22 22 22 22 22 22 23 23 23 23 23 23 22 22 22 22 22 22 22 22 22 22 22 22 22 22 23 23 22 22 22 22 22 23 23 23 23 22 22 22 22 22 22 22 22 21 19 18 18 18 18 18 19 19 19 19 19 19
11 12 13 14 16 18 19 19 20 20 20 21 21 21 21 21 21 22 22 22 22 22 22 22 23 23 23 23 24 23 23 23 23 24 24 24 24 24 24 23 23 23 23 23 23 23 23 23 23 23 23 23 23 23 23 23 23 23 23 23 23 23 23 23 23 23 23 23 23 23 22 22 21 20 20 19 19 19 19 20 20 20 19 19 20
11 11 12 13 15 17 18 19 20 21 21 22 22 23 23 23 23 23 23 23 23 23 23 23 23 24 24 24 25 25 24 24 24 24 25 25 25 25 25 25 24 25 25 24 24 24 24 24 24 24 24 24 24 24 24 24 24 24 24 24 24 23 23 23 23 23 23 23 23 23 23 22 22 21 21 21 21 20 21 21 21 21 21 21 22
10 11 12 13 14 15 17 18 20 21 21 22 23 24 24 24 24 23 24 24 24 24 24 24 24 24 25 25 25 25 25 25 25 25 26 26 26 26 26 25 26 26 26 26 26 25 25 25 25 25 25 25 25 25 25 25 25 24 24 24 24 24 24 23 23 23 23 23 24 24 24 23 23 23 23 23 22 22 22 22 22 22 23 23 23
11 11 12 13 14 15 16 17 18 20 21 21 22 23 24 24 24 24 24 25 25 25 25 25 26 26 26 26 26 26 27 26 26 26 26 26 27 26 26 26 27 27 26 26 26 26 26 26 26 26 26 25 25 25 25 25 25 25 25 25 25 25 24 24 23 23 23 23 24 24 24 24 24 24 24 24 24 24 24 24 24 24 25 24 24
11 11 12 13 14 15 15 17 18 19 20 20 21 22 22 23 24 24 24 24 25 26 26 26 27 27 27 27 27 27 27 27 27 27 28 27 27 27 27 27 27 27 27 27 27 26 26 26 26 26 27 26 26 26 26 26 26 25 25 25 25 25 24 24 24 24 24 23 23 24 24 24 24 24 24 24 25 25 25 26 26 26 26 25 25
11 12 12 13 14 15 15 16 17 18 19 20 20 20 20 21 23 23 23 23 24 26 26 27 27 28 28 28 28 28 28 28 28 28 29 29 29 29 28 28 28 28 28 28 28 27 27 26 26 27 27 27 27 27 27 27 27 27 26 26 26 26 25 25 25 25 25 24 24 24 24 24 24 25 25 25 25 26 27 27 27 27 27 26 26
12 12 12 13 13 14 15 16 17 18 19 19 20 20 20 21 22 22 22 23 24 25 25 26 27 28 28 29 29 29 29 30 30 29 30 30 31 31 30 30 29 29 29 29 29 28 28 27 27 27 28 28 28 28 28 28 28 28 28 28 28 27 27 26 26 26 26 26 25 25 25 26 26 26 26 26 26 27 27 28 28 28 27 27 27
12 12 12 13 13 14 15 16 16 17 19 19 20 21 21 22 22 22 22 23 24 24 25 25 26 27 28 29 29 30 30 30 30 31 31 31 32 32 32 32 32 31 31 30 30 30 30 29 29 29 29 29 29 29 29 29 29 29 30 30 29 28 28 28 27 27 27 27 27 27 27 27 27 27 27 28 28 28 28 28 28 27 27 26 26
12 12 13 13 13 14 14 15 16 17 18 19 20 21 22 22 23 23 24 24 24 25 25 25 26 27 28 28 29 30 31 30 30 31 31 32 32 33 33 34 34 34 33 32 32 31 31 30 31 31 31 31 31 31 30 30 30 30 31 31 30 30 30 29 29 29 29 29 29 29 29 29 28 28 28 29 28 28 28 27 27 26 26 25 23
13 13 14 14 14 14 15 15 16 17 18 19 20 21 22 22 23 24 24 24 25 25 26 26 26 27 27 27 28 29 30 30 31 31 32 32 33 33 34 35 35 36 35 35 34 34 33 31 31 31 32 32 32 32 32 32 32 32 32 32 32 32 31 31 31 31 30 30 30 30 29 29 29 29 29 29 28 28 27 26 26 26 25 23 22
14 14 14 14 15 16 16 16 16 17 18 18 19 20 21 22 22 23 24 24 25 25 26 26 26 27 27 27 27 28 28 29 30 31 32 32 33 33 34 34 35 36 36 36 36 36 36 35 34 34 33 33 33 33 33 33 33 33 33 33 33 33 32 32 33 32 32 32 31 30 29 29 29 29 29 29 29 28 28 26 26 25 24 24 23
13 14 14 15 15 16 16 16 16 17 17 18 18 19 20 21 22 22 23 24 24 25 25 26 27 27 28 28 28 28 28 28 29 30 31 31 32 32 33 33 34 35 35 36 36 37 37 37 37 36 36 35 35 34 34 34 34 34 34 34 34 34 33 33 33 33 33 32 31 30 31 31 30 30 30 30 29 29 28 27 26 25 24 24 22
13 13 14 14 15 15 16 16 17 17 17 18 18 19 19 20 21 21 22 22 23 24 25 26 27 28 28 29 29 30 30 29 29 29 30 30 31 31 31 31 32 32 33 34 35 36 36 37 38 37 37 36 36 36 35 35 35 35 35 35 34 34 34 34 34 33 33 32 31 31 32 32 31 31 30 30 29 28 27 26 25 24 23 22 21
13 13 13 14 14 15 16 17 17 17 18 18 18 19 19 19 19 20 20 21 22 23 24 26 27 28 29 30 30 31 32 31 31 30 30 30 31 31 31 31 32 32 32 32 33 33 34 35 36 36 37 37 37 37 37 37 37 36 36 35 35 35 35 36 35 35 35 34 33 33 33 32 31 31 30 29 29 28 26 26 25 24 23 22 21
13 13 14 14 15 15 16 16 17 17 18 18 19 19 19 19 19 19 19 20 20 22 23 25 27 28 29 30 31 32 33 34 34 34 34 34 33 33 33 33 33 33 33 33 33 33 33 34 34 35 35 36 36 37 37 37 38 37 37 36 36 36 36 36 36 36 36 36 36 35 34 33 33 32 31 30 29 27 27 26 26 25 24 22 21
13 14 14 15 15 15 15 16 16 17 17 17 18 18 18 18 18 19 19 19 20 21 22 24 26 28 29 30 32 33 34 35 36 37 37 37 37 36 35 34 34 34 34 34 34 35 35 34 35 35 35 35 35 35 36 36 37 37 37 37 37 37 37 37 37 37 37 37 37 36 35 34 33 32 32 31 29 29 28 27 26 25 23 21 20
14 14 14 15 15 15 16 16 16 16 16 17 17 17 17 17 18 18 19 19 19 20 21 22 23 25 26 28 30 31 32 33 34 35 36 37 38 38 38 37 36 35 35 35 35 35 35 35 35 36 36 36 36 36 36 36 36 36 37 37 37 37 37 36 37 37 36 36 35 35 35 34 32 31 31 30 30 29 28 26 24 22 20 19 19
14 14 14 15 15 15 16 15 15 16 16 17 17 17 17 17 17 18 18 18 19 20 20 21 21 21 22 24 26 28 30 31 31 32 34 35 36 37 37 37 36 35 35 35 36 36 35 35 36 36 37 38 38 37 36 36 36 36 37 36 36 36 36 36 36 35 35 34 33 33 33 32 31 29 28 28 28 26 24 22 21 20 18 18 18
13 13 14 14 15 15 15 15 15 16 16 17 17 17 17 18 18 18 18 18 19 19 20 20 20 20 20 20 21 23 25 27 28 29 30 32 33 33 34 34 34 34 34 35 35 36 36 36 36 36 37 38 38 37 36 35 35 36 35 35 35 35 34 34 34 33 32 31 31 30 30 29 28 27 26 25 24 22 21 19 18 18 18 17 17
13 13 13 14 14 14 14 15 16 16 17 17 17 18 18 18 18 18 18 18 19 19 19 19 19 18 18 18 17 18 19 21 24 25 27 28 29 30 31 32 33 33 33 34 34 34 35 35 36 36 36 36 36 35 35 35 35 35 34 33 32 32 32 32 31 31 31 30 30 29 29 28 27 26 25 23 21 20 19 18 17 17 17 17 16
12 13 13 14 14 14 15 15 16 16 17 17 17 18 18 18 18 18 18 18 19 19 18 18 17 17 17 16 16 15 15 16 17 19 21 23 25 26 28 30 31 31 32 32 33 33 33 33 32 32 32 32 32 33 33 33 33 32 31 30 30 30 29 28 27 27 27 26 25 25 24 23 22 22 21 20 19 19 18 18 17 17 17 16 16
12 12 13 14 14 15 15 15 16 16 16 17 17 17 17 17 17 17 16 17 17 17 17 16 16 16 15 15 14 14 14 14 13 13 14 16 19 21 23 24 25 26 27 28 29 29 29 29 28 28 28 29 29 30 30 29 28 27 26 26 26 26 25 24 22 22 21 20 19 19 18 17 18 18 18 18 18 18 17 17 17 17 17 16 15
11 11 12 13 14 14 15 15 15 15 15 16 16 16 16 15 15 15 15 15 15 15 15 15 14 13 13 13 12 12 12 12 11 11 11 11 13 15 16 17 19 20 21 23 24 25 25 25 25 25 25 25 25 26 25 24 23 22 22 22 22 22 21 20 19 19 18 17 17 17 17 17 17 17 17 17 17 17 17 18 17 17 17 17 16
9 10 11 12 13 13 14 14 14 14 14 15 15 15 15 14 14 13 12 13 13 13 12 12 11 9 9 8 9 8 8 8 8 8 8 9 9 10 11 12 13 14 15 17 18 19 20 20 21 20 20 19 18 19 20 20 20 20 19 19 18 18 17 17 17 17 17 17 17 16 16 16 17 17 17 17 17 18 18 18 17 17 17 17 17
8 9 10 11 11 12 12 12 12 13 13 14 14 14 13 12 12 11 10 10 10 10 9 8 7 6 5 5 5 5 5 4 5 5 6 7 7 8 8 9 10 10 11 11 12 14 15 16 16 16 16 16 15 15 16 17 17 16 16 15 15 15 15 15 16 16 16 16 16 16 16 16 16 17 17 17 17 17 17 17 17 17 18 18 17
8 9 9 10 11 10 9 9 9 10 10 10 11 11 11 11 10 10 9 8 7 6 5 4 4 3 2 2 2 2 2 2 2 2 3 4 4 5 5 6 7 8 8 8 9 10 11 12 13 13 14 15 15 14 14 13 13 13 13 12 13 13 13 13 14 14 14 14 15 15 15 16 16 16 17 17 18 18 17 17 17 18 18 18 18
8 9 9 9 10 9 8 7 7 7 7 7 8 8 8 9 9 9 8 6 6 5 4 3 3 3 2 1 1 2 1 1 1 1 1 2 2 2 2 2 3 4 6 6 7 8 9 9 10 11 12 12 12 12 12 12 12 11 11 11 11 11 11 11 12 12 12 13 14 15 16 16 17 17 17 18 18 18 17 18 18 18 19 19 19
8 8 8 8 8 8 7 7 6 5 3 3 4 5 5 5 6 6 5 5 4 4 4 3 3 3 3 2 2 1 1 1 1 1 0 0 0 1 1 2 2 2 3 4 5 6 7 7 8 8 9 9 10 10 11 12 12 11 10 10 10 10 10 10 11 12 12 13 14 15 16 17 17 17 17 18 18 18 18 18 19 19 20 20 20
7 7 7 7 7 7 6 6 5 3 1 1 2 3 4 4 5 5 4 3 4 4 4 4 3 3 3 2 2 1 0 1 1 1 1 1 1 1 1 2 2 2 2 3 3 4 5 5 6 6 7 8 9 10 10 10 10 10 10 10 10 10 10 11 11 12 13 14 15 15 16 17 17 17 17 18 18 19 19 20 20 21 21 21 21
7 7 6 6 6 6 5 5 3 2 1 1 2 3 4 5 4 4 3 3 3 4 4 4 3 3 3 3 2 1 1 0 0 1 1 1 1 1 1 1 1 2 2 3 3 3 3 4 4 5 5 7 8 8 9 9 9 9 9 10 10 10 11 12 13 13 14 15 15 16 16 17 18 18 18 19 20 20 21 21 21 22 22 22 22
7 6 6 6 5 5 4 4 3 1 0 1 2 3 4 4 3 3 3 3 4 4 4 4 3 3 3 3 3 2 2 1 1 1 1 1 1 1 0 0 1 1 2 2 3 3 3 4 4 5 5 6 7 8 8 9 9 9 9 9 10 11 11 12 13 14 15 15 16 16 16 17 18 18 19 20 20 21 22 22 22 22 22 22 22
7 6 6 6 5 5 4 4 3 2 1 2 2 3 4 4 4 4 3 4 4 4 4 4 4 4 4 4 4 3 3 3 2 2 2 2 1 1 1 1 1 1 2 3 3 3 4 4 5 5 6 7 7 8 9 9 9 9 10 10 11 12 12 13 14 15 15 16 16 17 17 18 19 19 20 20 20 21 22 22 22 22 23 23 24
7 6 6 5 5 5 4 4 3 3 2 2 3 3 4 4 4 4 4 4 4 4 4 4 4 4 4 4 4 4 3 3 3 3 3 2 2 2 2 2 2 2 2 3 3 4 4 5 5 5 6 7 8 9 10 10 11 11 11 12 12 13 13 14 15 15 16 17 17 18 18 19 19 19 20 21 21 21 22 22 23 24 24 25 25
7 6 6 5 5 5 5 4 4 4 4 4 4 4 4 5 5 5 5 5 5 5 5 4 4 4 4 4 4 4 4 4 4 4 4 4 3 3 3 3 3 3 3 4 4 4 5 5 6 6 7 7 8 9 9 10 11 12 12 13 13 14 14 15 16 17 17 18 18 19 19 20 20 21 21 22 22 23 24 24 25 25 26 26 26
8 7 6 6 6 6 5 5 5 4 4 5 5 5 5 6 6 6 6 6 6 6 6 5 5 5 5 5 5 5 5 5 5 5 5 5 5 5 4 4 4 4 5 5 5 6 6 6 7 7 7 8 8 9 10 10 11 12 12 12 12 13 14 15 15 16 17 18 19 19 20 20 21 21 22 22 23 24 25 25 25 25 26 27 27
9 9 8 7 6 6 6 6 6 5 5 5 6 6 6 6 6 6 7 7 7 7 7 7 7 7 7 7 7 7 7 7 7 6 6 6 6 6 6 6 6 6 6 6 6 6 7 7 8 8 8 9 9 10 10 11 11 11 11 11 12 12 13 14 14 15 16 17 18 18 19 19 20 21 21 22 23 24 24 25 26 26 27 28 28
Wind_Direction
215 214 214 213 210 208 206 204 202 201 200 200 201 201 201 201 201 201 202 205 206 206 206 205 203 202 203 204 206 207 207 209 211 212 215 216 217 219 221 221 222 223 223 223 224 225 225 226 228 228 229 231 232 234 235 236 238 240 242 244 246 248 248 251 256 262 265 268 270 272 273 273 273 276 281 285 292 300 303 308 313 314 314 317 323
212 210 210 209 208 206 205 203 201 201 200 201 201 201 201 201 200 201 203 205 206 207 206 205 203 202 203 205 206 207 209 211 213 214 216 218 219 221 222 223 223 224 223 224 224 225 226 228 230 230 231 232 233 234 236 238 239 240 242 244 247 248 248 250 255 261 266 266 266 268 268 270 271 273 277 282 288 294 297 302 307 310 311 314 318
208 207 207 206 205 204 203 203 201 200 201 201 201 201 200 200 200 201 203 205 206 207 206 204 203 203 204 205 207 208 210 212 215 216 218 220 221 222 222 222 223 224 224 224 225 226 227 229 231 231 232 232 233 234 236 238 240 242 244 245 248 250 250 251 254 260 265 266 266 266 266 267 269 271 275 281 285 288 292 297 301 305 307 311 315
207 206 206 204 202 201 203 203 202 200 201 202 202 201 201 200 201 202 204 205 206 206 205 204 203 204 205 206 208 210 212 214 216 218 219 220 221 221 222 223 224 225 225 226 226 227 229 230 232 232 233 233 234 235 236 239 240 242 244 246 248 251 252 252 255 259 263 265 265 265 265 266 267 268 272 278 280 283 289 293 295 299 303 308 312
206 206 205 204 202 202 203 202 201 200 201 202 202 201 201 202 203 204 205 206 206 205 204 204 204 205 206 208 209 211 213 215 217 219 220 221 221 223 224 224 225 226 227 227 228 229 230 231 233 233 234 234 234 235 237 238 240 242 244 246 248 251 253 254 256 258 261 264 264 264 263 263 263 264 269 273 275 280 285 287 289 294 297 301 305
206 206 206 204 203 204 203 201 201 200 201 201 202 202 202 203 203 204 205 206 205 204 204 204 205 206 208 210 212 213 215 217 219 220 220 221 222 224 225 226 226 228 229 229 230 230 231 232 233 234 234 234 235 236 237 238 240 241 244 247 249 251 253 254 256 258 260 263 264 263 262 261 260 262 266 269 271 275 279 280 283 289 292 295 299
206 205 205 204 204 203 202 201 201 201 201 201 201 201 202 203 203 204 204 205 204 203 204 204 206 207 209 211 213 214 216 218 220 221 221 222 223 225 226 227 228 230 231 231 231 231 232 233 233 234 234 235 236 237 238 239 240 242 244 247 249 250 252 254 256 258 261 264 265 265 265 264 264 263 263 268 271 271 272 274 277 284 289 292 295
206 206 205 205 205 203 201 201 202 202 202 202 201 201 202 203 203 203 203 203 203 204 204 205 206 208 210 212 214 215 217 219 221 221 222 224 225 226 227 228 230 231 232 232 233 233 233 234 234 234 234 235 236 237 238 239 240 242 244 246 247 248 251 254 255 257 260 263 264 267 267 265 267 266 263 265 269 270 271 273 275 281 286 289 292
206 206 206 206 206 204 202 202 202 202 203 203 202 201 201 202 203 203 203 203 203 205 206 206 208 209 211 213 215 216 218 220 221 222 224 225 227 228 229 230 231 232 233 234 234 234 234 235 235 235 235 235 236 237 239 240 241 243 244 245 246 248 251 253 255 257 260 262 263 266 265 263 265 266 263 264 268 269 270 273 275 279 284 288 291
207 206 207 208 207 205 204 203 203 203 203 203 204 203 203 204 205 205 206 206 206 206 207 208 210 211 213 214 216 218 221 223 223 224 225 227 228 230 231 232 233 234 234 235 235 235 235 236 236 236 236 236 237 238 239 240 241 243 245 246 248 249 251 253 255 257 260 262 263 264 264 263 264 264 264 267 269 268 269 272 275 278 283 287 290
209 208 209 209 209 208 207 205 205 205 205 205 206 205 205 206 207 207 208 208 209 210 210 212 213 214 215 216 218 221 224 225 225 226 228 229 230 232 233 234 234 235 235 236 236 236 237 237 238 238 239 238 238 239 240 240 242 243 245 246 248 250 251 253 256 258 260 262 263 263 264 265 266 266 267 269 269 268 270 273 275 278 281 284 287
215 212 211 212 211 211 210 209 208 209 209 209 209 208 208 208 209 210 210 211 212 213 214 215 216 217 218 220 222 224 226 228 227 228 230 231 232 234 235 236 236 237 237 237 237 238 238 239 239 239 240 240 240 240 241 242 243 244 245 246 247 250 252 254 257 258 260 261 262 262 262 264 267 269 268 268 269 271 272 275 277 279 282 283 285
221 218 216 216 215 214 214 213 213 213 212 213 213 213 212 212 212 213 214 215 215 217 218 219 220 221 222 224 226 228 229 229 229 230 231 232 232 234 236 237 238 238 238 238 238 239 239 240 240 240 241 241 241 241 242 244 245 246 247 247 248 250 252 254 256 257 259 261 261 262 262 263 266 269 268 269 271 272 274 277 278 279 282 284 284
227 224 222 220 219 218 218 218 217 217 216 217 217 217 217 217 217 217 217 218 219 220 222 223 224 225 226 228 229 231 232 231 230 231 233 234 233 235 236 238 239 239 239 239 240 240 241 241 242 242 242 242 243 243 244 245 247 248 248 248 249 251 252 253 254 256 258 260 261 263 263 264 267 269 270 271 272 273 276 280 280 280 282 283 284
231 229 227 224 222 221 222 222 222 221 221 221 221 221 220 220 220 221 221 221 222 223 225 226 227 228 229 230 232 233 235 234 233 233 235 235 235 236 238 239 240 240 240 240 241 241 242 242 243 244 243 244 244 245 245 246 247 248 248 249 250 252 252 253 253 255 258 260 261 263 265 267 268 269 270 272 273 274 278 281 283 284 284 283 283
235 233 230 227 225 225 225 226 226 226 225 224 224 224 224 224 224 224 224 225 226 226 228 229 230 231 232 233 234 236 237 236 235 235 236 236 236 237 239 240 241 241 242 242 242 242 243 243 244 245 245 245 245 245 246 247 248 249 249 250 252 253 254 253 253 255 259 261 262 263 265 267 268 270 271 272 274 276 279 281 282 283 282 280 281
238 236 233 229 227 228 230 231 231 230 229 228 228 227 227 227 227 226 227 228 229 230 230 232 233 234 235 236 237 238 239 238 236 237 237 237 237 238 239 241 242 243 243 243 243 244 244 244 245 246 246 247 246 245 246 247 249 250 251 252 253 254 254 254 254 256 259 261 262 263 265 266 267 268 270 272 274 275 278 280 280 280 280 279 280
242 240 237 233 230 230 232 233 234 234 233 232 231 231 231 230 229 229 229 230 231 232 233 234 235 236 237 238 239 240 241 240 238 238 238 238 239 240 240 241 243 243 244 244 244 245 245 245 245 246 247 247 247 246 246 247 249 250 251 252 253 253 253 254 255 257 259 260 261 262 263 264 265 266 268 271 273 274 276 278 278 279 280 280 280
247 244 242 239 236 233 232 233 234 235 236 236 235 235 234 234 233 232 231 232 234 235 236 237 237 238 239 239 239 240 242 242 241 240 240 239 240 241 241 241 242 243 244 244 244 245 246 245 245 245 247 247 246 246 246 247 248 248 249 251 252 252 252 253 254 257 259 260 260 261 262 263 264 266 268 270 272 273 275 277 278 279 280 280 280
250 248 246 244 242 239 237 236 236 238 240 241 240 239 238 239 238 237 235 236 237 238 239 239 240 240 241 241 241 241 242 243 242 241 241 241 241 241 242 242 242 243 243 244 245 245 246 246 245 245 246 247 246 246 246 246 247 248 249 250 251 252 252 253 254 257 259 260 260 261 262 263 264 266 268 270 272 272 274 276 278 280 281 280 280
252 250 249 248 247 245 243 242 241 242 243 245 246 245 244 244 244 242 240 240 241 242 242 241 242 242 242 242 242 242 242 243 243 242 242 242 241 241 242 243 243 243 244 244 244 245 246 247 247 245 245 246 246 246 246 247 247 248 249 250 251 252 253 255 256 257 259 260 260 261 262 263 265 268 269 271 272 273 274 276 278 280 281 280 280
254 252 250 249 249 248 247 246 245 245 246 247 249 249 248 248 248 247 246 245 245 246 246 245 245 245 245 244 244 244 244 244 244 243 242 242 243 242 243 244 244 244 245 245 245 245 246 247 247 246 245 247 248 247 247 247 247 249 250 251 252 253 254 256 257 257 259 260 260 262 263 264 266 268 269 270 272 273 275 276 278 279 279 279 280
255 254 252 251 250 250 250 250 250 249 249 250 251 251 251 251 251 251 250 250 250 250 250 249 249 248 248 247 246 245 245 244 244 244 244 243 243 244 244 245 245 245 246 247 247 247 247 247 248 246 246 248 249 249 249 248 248 249 250 251 253 253 254 256 257 258 259 260 260 262 263 265 266 267 268 270 272 274 275 277 277 278 278 278 279
257 256 255 254 253 253 254 254 254 253 253 253 253 254 254 254 253 253 253 253 253 253 252 252 252 251 251 251 249 248 247 245 245 245 245 244 244 244 245 246 246 246 247 248 249 249 249 249 249 247 246 248 249 250 250 250 250 250 250 251 252 253 254 256 257 258 259 260 261 262 263 265 266 267 269 271 272 274 275 276 276 275 275 275 276
258 258 258 258 258 257 257 257 257 257 257 257 257 257 257 257 257 256 256 255 255 255 254 254 254 253 253 253 252 251 250 248 247 247 247 246 246 245 245 246 246 247 247 248 249 249 250 251 251 250 249 249 249 250 251 251 251 251 252 252 253 254 255 256 257 258 259 260 262 263 264 265 267 268 269 271 273 274 274 274 274 274 273 272 273
259 258 258 259 260 260 260 260 260 260 260 260 260 260 260 260 260 259 259 258 257 257 257 256 255 255 254 254 254 253 252 250 250 249 249 249 248 247 247 247 247 248 248 249 250 250 251 252 252 252 252 251 251 252 253 253 253 253 253 253 254 255 256 256 257 258 259 260 261 262 264 265 266 267 269 270 272 272 271 270 272 271 270 270 272
260 259 259 260 260 260 261 261 261 261 261 261 262 262 262 262 261 260 260 259 259 259 259 258 257 256 256 255 255 254 253 252 251 251 250 250 249 249 248 248 248 248 249 250 251 251 252 252 252 252 253 253 252 253 254 254 254 254 254 253 254 255 256 257 258 259 260 260 261 262 264 264 265 267 269 269 269 270 269 269 268 267 267 268 269
261 261 261 262 261 260 260 261 262 263 263 263 263 263 263 263 262 262 261 260 260 260 260 260 259 258 257 256 255 254 253 252 252 251 251 250 250 249 249 249 249 249 249 250 251 252 252 252 252 252 252 253 253 253 253 253 254 254 254 254 254 255 257 259 260 261 262 262 262 262 263 264 265 266 268 268 267 267 268 267 264 263 265 266 265
265 265 265 265 264 263 263 262 261 262 263 263 263 263 262 262 262 263 263 263 263 263 263 262 262 260 259 258 257 256 254 252 251 252 251 251 250 249 249 249 250 250 250 250 251 251 252 252 251 251 252 252 253 253 253 254 254 255 255 255 255 256 257 258 260 261 261 262 262 262 262 263 264 265 266 266 266 265 264 262 259 259 263 264 262
267 266 266 268 267 266 266 265 263 262 263 263 264 263 261 260 260 262 264 265 267 267 266 265 264 263 262 260 259 258 256 255 254 254 253 251 250 249 249 250 251 251 251 251 250 251 251 251 251 251 251 252 252 253 254 254 254 255 255 255 256 256 256 258 259 260 260 261 261 262 262 263 264 264 263 264 263 262 261 260 259 259 260 260 257
269 268 269 271 271 270 269 267 266 265 264 264 264 263 261 259 258 261 264 266 268 270 271 270 268 266 264 262 262 261 259 258 257 256 254 252 251 250 250 250 251 251 251 250 250 250 250 251 251 251 251 252 253 253 254 254 254 255 255 256 257 257 258 258 259 260 260 260 261 262 262 263 262 262 262 261 261 260 261 261 259 257 256 253 249
272 272 273 273 274 273 271 269 268 267 266 266 265 264 262 261 261 262 264 266 269 273 275 276 274 271 268 265 264 263 261 259 257 256 255 254 252 250 249 250 251 252 251 251 251 251 250 250 251 251 251 251 253 254 254 254 254 255 256 257 258 258 259 259 260 260 260 260 261 261 261 261 261 261 260 259 258 258 258 256 253 250 247 244 243
274 275 276 276 276 274 272 270 268 267 267 267 266 264 264 265 266 268 269 270 272 274 276 278 277 276 274 271 267 264 262 260 258 257 255 254 253 251 249 249 251 251 251 251 251 251 251 251 252 252 252 252 253 254 254 254 254 255 256 257 258 259 260 260 260 260 260 261 261 261 260 259 258 259 258 256 255 253 249 245 242 241 240 240 241
277 278 279 280 279 277 274 271 270 269 268 268 267 265 265 266 268 271 274 275 275 275 277 278 277 277 278 277 273 268 264 260 258 257 255 254 253 250 247 248 250 251 252 252 252 252 251 252 252 253 253 253 253 254 254 254 254 255 256 257 258 259 259 259 259 259 260 259 259 258 257 256 255 255 253 250 248 244 238 235 236 237 238 240 241
281 283 284 284 282 280 277 274 272 270 269 268 267 265 265 266 268 271 274 276 277 277 278 278 276 275 277 279 278 276 271 265 261 258 256 254 251 248 246 248 250 251 252 252 252 252 252 253 253 254 254 253 253 253 254 254 254 255 255 256 257 257 258 258 258 258 257 257 256 256 255 254 253 251 246 240 237 233 230 231 234 235 236 239 239
285 287 288 287 284 281 278 275 274 271 269 268 267 266 266 266 267 269 272 275 277 279 280 279 276 273 275 276 277 277 276 273 268 262 258 254 250 247 247 249 250 251 251 251 251 251 252 253 254 254 253 253 253 253 254 254 254 253 253 254 254 255 256 257 257 256 255 255 255 252 249 247 243 239 233 229 226 225 226 230 233 235 237 238 239
286 288 289 288 286 282 279 277 275 273 270 268 267 266 266 266 266 267 270 273 276 278 280 280 277 274 275 277 276 274 274 274 272 267 261 254 250 249 249 250 250 251 252 251 251 250 251 251 252 252 253 253 253 253 253 252 251 249 249 251 252 254 254 254 252 251 250 248 244 239 236 233 229 226 224 222 222 224 228 231 234 236 238 239 240
291 293 294 293 289 285 281 278 276 272 269 267 266 266 266 265 265 265 267 270 272 275 278 280 280 278 277 277 276 274 272 271 270 269 264 257 253 252 251 250 251 251 252 251 250 249 249 249 250 251 251 251 251 249 247 245 245 246 247 249 250 249 248 247 246 245 244 241 237 232 229 227 225 222 221 221 222 226 230 233 236 238 239 240 242
303 305 305 303 299 293 287 280 275 271 268 267 267 266 263 261 260 261 263 265 268 271 275 278 279 277 275 274 274 273 272 271 270 268 264 258 255 252 249 248 247 247 248 248 246 245 244 243 243 244 245 245 245 243 239 238 242 245 245 244 243 241 240 240 239 239 238 237 233 228 225 224 222 221 222 224 227 230 233 236 239 239 239 240 244
315 318 317 314 312 308 297 285 277 273 270 267 265 262 257 254 253 255 257 260 263 266 268 269 269 268 266 267 272 276 274 273 272 270 266 263 260 256 253 250 246 243 244 244 241 238 236 236 236 239 240 239 239 238 236 234 235 236 236 234 233 232 233 232 231 231 231 229 225 222 221 222 223 224 228 230 232 234 236 238 240 240 240 243 248
318 321 322 321 321 320 312 297 286 279 273 268 262 256 250 245 243 243 246 249 252 255 254 249 246 242 236 248 285 299 290 275 268 268 273 274 271 265 260 255 248 242 240 238 233 230 230 230 230 231 233 233 233 232 230 227 225 225 227 228 227 228 229 228 225 224 223 222 220 221 224 227 229 231 233 234 235 237 239 240 242 243 245 248 252
318 321 322 323 326 328 326 317 305 292 279 269 258 246 238 236 234 232 230 229 228 226 222 218 216 210 200 204 333 348 349 331 286 261 272 286 280 266 256 250 241 236 232 226 220 219 221 224 225 226 227 229 230 229 229 232 234 233 232 231 229 229 229 226 222 221 223 224 224 226 228 230 232 234 236 237 239 242 243 244 246 248 250 253 256
319 323 323 325 330 334 336 337 335 325 298 258 235 222 217 218 217 210 202 201 203 201 197 196 200 205 212 231 262 288 353 38 50 60 53 40 99 185 189 182 184 200 208 207 208 210 213 216 219 220 220 223 226 227 230 234 237 237 235 235 235 234 232 229 226 225 226 227 228 229 230 231 232 236 239 241 244 246 247 248 251 253 255 257 258
314 319 323 328 333 337 342 352 2 11 44 160 188 192 183 174 172 173 175 181 184 181 181 187 198 212 224 233 239 248 306 29 38 38 40 55 83 110 139 160 172 180 185 191 201 209 212 214 216 215 215 218 222 227 230 234 238 240 242 242 239 236 234 232 229 228 229 231 232 234 235 235 237 241 245 246 247 250 252 253 254 256 257 258 259
304 309 316 323 330 337 345 356 7 24 85 135 163 174 172 168 169 176 188 197 193 189 191 200 214 227 233 230 227 234 250 270 318 2 22 40 61 82 112 150 177 194 201 207 214 221 224 225 226 226 226 227 230 235 241 244 247 249 248 246 243 239 236 234 233 233 235 237 237 239 240 241 243 247 250 251 252 255 256 256 257 258 259 259 259
296 300 306 312 317 323 331 344 353 353 235 181 174 178 185 193 202 212 219 219 213 208 207 212 224 235 237 237 242 252 260 264 273 295 318 340 8 28 44 144 208 222 226 228 231 232 232 231 231 233 235 236 237 242 246 249 251 251 250 250 249 247 244 242 241 240 241 243 244 245 247 248 249 252 255 256 256 257 258 258 259 259 258 258 259
291 294 298 302 305 302 303 315 328 321 266 230 215 210 213 219 224 226 225 221 220 221 226 234 246 253 253 253 257 264 269 272 276 280 284 291 304 314 311 303 289 270 255 250 249 251 251 251 250 249 250 250 249 249 251 253 255 256 255 253 252 251 249 247 247 247 247 249 251 252 254 254 255 256 257 257 258 258 259 260 261 261 261 261 262
282 286 291 295 297 293 286 285 290 288 268 247 237 235 234 233 233 232 230 229 232 237 243 248 254 259 260 261 263 266 269 272 275 277 277 278 283 289 292 290 287 284 279 272 266 264 263 265 264 263 262 261 261 260 260 260 259 259 259 258 257 256 254 254 254 254 254 255 256 257 258 259 259 260 261 261 261 261 261 262 263 264 265 264 264
273 277 283 286 287 287 281 271 269 267 258 245 240 239 239 239 240 241 242 244 246 247 248 251 255 258 258 257 258 262 268 272 273 271 270 269 268 269 273 277 280 280 281 280 278 276 273 271 270 269 268 266 266 265 265 265 264 263 263 263 262 261 261 262 262 261 260 260 260 261 262 262 262 263 264 264 263 264 264 265 265 265 265 265 265
267 271 274 275 278 282 279 271 265 262 255 248 245 242 240 240 240 241 244 247 248 248 250 254 258 261 261 260 261 263 265 267 267 265 264 265 266 264 264 268 273 276 277 277 278 279 279 278 277 277 276 275 274 272 271 271 271 270 269 268 266 265 266 268 268 266 264 264 265 265 266 265 264 264 265 265 264 265 266 266 266 266 266 267 267
264 266 268 267 268 272 273 269 265 262 258 254 251 249 246 244 242 242 244 248 251 253 256 259 262 264 266 266 266 265 263 263 263 263 261 262 265 266 266 269 272 274 275 277 279 282 284 284 283 284 283 282 281 280 279 278 278 277 275 273 271 270 270 271 271 269 269 269 269 268 268 268 267 266 266 267 267 267 267 267 267 268 269 269 269